Location: Betra
(48.4113°N, 8.6634°E)
Time: 18:55:27
(UTC+00:00)

Resurs 1-4 Rocket - Pass Details

Date: 06 August 2024
Orbit: 798 x 813 km, 98.7° (Epoch: 06 September)

Event Time Altitude Azimuth Distance (km) Brightness Sun altitude
Rises 00:53:36 0° 20° (NNE) 3,347 6.8 -22.4°
Reaches altitude 10° 00:56:06 10° 28° (NNE) 2,409 5.7 -22.3°
Maximum altitude 01:01:07 40° 98° (E) 1,177 3.0 -22.0°
Enters shadow 01:03:20 27° 146° (SSE) 1,500 3.2 -21.8°
